Weather in Lifford

Ireland     54°49′58″N   7°28′54″W
temp.,
°C
wind,
m/s
gust,
m/s
humid.,
%
clouds,
%
prec.,
mm/h
press.,
hPa
HPBL,
m
11 april, sun
sun1101:00−2wnw11845 0.0 102212
04:00−2nw11915 0.0 102213
07:00−2wnw11905 0.0 102312
10:00+4nnw3564100 0.1 1023864
13:00+6nnw475110 0.6 10241751
16:00+6nw565788 0.2 10231489
19:00+5nw3478100 0.6 1024623
22:00+2wnw1191100 0.1 102513
12 april, mon
mon1201:00+2w1299100 0.5 1026307
04:00+2ssw11100100 1.0 1027157
07:00+2s11100100 1.1 102776
10:00+4s1297100 0.1 1028247
13:00+4s2398100 0.6 1029263
16:00+7wsw138899 0.7 1029235
19:00+7nw258690 1.9 1029262
22:00+4sw119362 0.1 103112
13 april, tue
tue1301:00+3sw229599 0.1 103116
04:00+1ssw229689 0.0 103215
07:00+1ssw229715 0.0 103218
10:00+7wsw248626 0.0 1033542
13:00+11w335880 0.3 10321570
16:00+10w346255 0.4 10321124
19:00+8nw367711 0.8 1032216
22:00+3nne11915 0.0 103410
14 april, wed
wed1401:00+2nnw00933 0.0 103410
04:00+1se00940 0.0 103410
07:00+1e11920 0.0 103410
10:00+7se12775 0.0 1034338
13:00+11se225610 0.0 10341394
16:00+12e225194 0.1 10331607
19:00+10ese357973 0.3 1033174
22:00+6se229375 0.1 103431
15 april, thu
thu1501:00+5se119392 0.1 103521
04:00+5sse119388 0.0 103430
07:00+3se119273 0.0 103538
10:00+8se34715 0.0 1035465
13:00+11se45566 0.0 10341428
16:00+11se556399 0.1 10331126
19:00+9se47715 0.1 1032692
22:00+4sse310857 0.0 1034267